Temp
-10 -10 -9 -9 -9 -9 -9 -9 -9 -9 -9 -9 -9 -9 -9 -9 -9 -8 -8 -8 -8 -8 -8 -8 -8 -8 -8 -8 -8 -8 -8 -8 -8 -8 -8 -9 -9 -9 -9 -10 -10 -10 -10 -10 -11 -11 -11
-10 -10 -9 -9 -9 -9 -9 -9 -9 -9 -9 -9 -9 -9 -9 -9 -8 -8 -8 -8 -8 -8 -8 -8 -8 -8 -8 -8 -8 -8 -8 -8 -8 -8 -8 -9 -9 -9 -9 -10 -10 -10 -10 -11 -11 -11 -12
-10 -10 -9 -9 -9 -9 -9 -9 -9 -9 -9 -9 -9 -9 -9 -9 -8 -8 -8 -8 -8 -8 -8 -8 -8 -8 -8 -8 -8 -8 -8 -8 -8 -8 -9 -9 -9 -9 -9 -10 -10 -10 -11 -11 -11 -12 -11
-10 -10 -10 -10 -9 -9 -9 -9 -9 -9 -9 -9 -9 -9 -9 -9 -9 -9 -8 -9 -9 -9 -9 -9 -8 -8 -8 -8 -8 -8 -8 -8 -8 -8 -9 -9 -9 -9 -10 -10 -10 -10 -11 -11 -11 -12 -12
-10 -10 -10 -10 -10 -10 -10 -10 -9 -9 -9 -9 -9 -9 -9 -9 -9 -9 -9 -9 -9 -9 -9 -9 -8 -9 -8 -8 -8 -8 -8 -8 -8 -8 -9 -9 -9 -10 -10 -10 -10 -10 -10 -11 -11 -12 -12
-10 -10 -10 -10 -10 -10 -10 -10 -10 -10 -10 -10 -10 -9 -9 -9 -9 -9 -9 -9 -9 -9 -9 -9 -8 -9 -8 -8 -8 -8 -8 -8 -8 -9 -9 -9 -9 -10 -10 -10 -10 -10 -10 -10 -10 -11 -12
-10 -10 -10 -10 -10 -10 -10 -10 -10 -10 -10 -10 -10 -10 -9 -9 -9 -9 -9 -9 -9 -9 -9 -9 -9 -9 -9 -9 -9 -9 -9 -9 -9 -9 -9 -9 -9 -10 -10 -10 -10 -10 -10 -10 -10 -11 -11
-10 -10 -10 -10 -10 -10 -10 -10 -10 -10 -10 -10 -10 -10 -10 -10 -9 -9 -9 -9 -9 -9 -9 -9 -9 -9 -9 -9 -9 -9 -9 -9 -9 -9 -9 -9 -10 -10 -10 -10 -10 -10 -10 -10 -10 -11 -11
-11 -10 -10 -10 -10 -10 -10 -10 -10 -10 -10 -10 -10 -10 -10 -10 -10 -10 -10 -10 -9 -9 -9 -9 -9 -9 -9 -9 -9 -9 -9 -9 -9 -9 -10 -10 -10 -10 -10 -10 -10 -10 -11 -11 -11 -11 -12
-11 -11 -10 -10 -10 -10 -10 -10 -10 -10 -10 -10 -10 -10 -10 -10 -10 -10 -10 -10 -10 -10 -9 -9 -9 -9 -9 -9 -9 -9 -9 -10 -10 -10 -10 -10 -10 -10 -10 -10 -10 -11 -11 -11 -11 -11 -11
-11 -11 -11 -11 -11 -11 -11 -10 -10 -10 -10 -10 -10 -10 -10 -10 -10 -10 -10 -10 -10 -10 -10 -10 -10 -10 -10 -10 -10 -10 -10 -10 -10 -10 -10 -11 -11 -11 -11 -11 -11 -11 -10 -11 -11 -11 -11
-11 -11 -11 -11 -11 -11 -11 -11 -11 -10 -10 -10 -10 -10 -10 -10 -10 -10 -10 -10 -10 -10 -10 -10 -10 -10 -10 -10 -10 -10 -10 -10 -10 -11 -11 -11 -11 -11 -11 -11 -11 -11 -11 -11 -11 -11 -11
-11 -11 -11 -11 -11 -11 -11 -11 -11 -10 -10 -10 -10 -10 -10 -10 -10 -10 -10 -10 -10 -10 -10 -10 -10 -10 -10 -10 -11 -11 -11 -11 -11 -11 -11 -11 -12 -12 -12 -11 -12 -12 -11 -11 -11 -11 -11
-11 -11 -11 -11 -11 -11 -11 -11 -11 -11 -11 -11 -10 -10 -10 -10 -10 -10 -10 -10 -10 -10 -10 -10 -10 -10 -11 -11 -11 -11 -11 -11 -11 -11 -11 -12 -12 -12 -12 -12 -12 -12 -12 -12 -12 -12 -12
-11 -11 -11 -11 -11 -11 -11 -11 -11 -11 -11 -11 -11 -11 -10 -10 -10 -10 -10 -10 -10 -10 -10 -10 -11 -11 -11 -11 -11 -11 -11 -11 -12 -12 -12 -12 -13 -13 -13 -13 -13 -13 -12 -12 -12 -12 -12
-11 -11 -11 -11 -11 -11 -11 -11 -11 -11 -11 -11 -11 -11 -11 -11 -11 -11 -10 -10 -10 -10 -10 -11 -11 -11 -11 -11 -11 -11 -11 -12 -12 -12 -13 -13 -13 -13 -13 -13 -13 -14 -14 -13 -13 -13 -13
-11 -11 -11 -11 -11 -11 -11 -11 -11 -11 -11 -11 -11 -11 -11 -11 -11 -11 -11 -11 -11 -11 -11 -11 -11 -11 -11 -12 -12 -12 -12 -12 -12 -13 -13 -13 -13 -14 -14 -13 -13 -14 -14 -14 -14 -14 -14
-11 -11 -11 -11 -11 -11 -11 -11 -11 -11 -11 -11 -11 -11 -11 -11 -11 -11 -11 -11 -11 -11 -11 -12 -12 -12 -12 -12 -12 -12 -13 -13 -13 -13 -13 -14 -14 -13 -14 -14 -14 -14 -15 -15 -15 -15 -15
-12 -12 -11 -12 -11 -11 -11 -11 -11 -11 -11 -11 -11 -11 -11 -11 -11 -11 -11 -12 -12 -12 -12 -12 -12 -12 -12 -12 -12 -12 -13 -13 -14 -14 -14 -14 -14 -14 -14 -14 -14 -14 -15 -16 -16 -16 -15
-12 -12 -12 -12 -11 -12 -12 -11 -11 -11 -11 -11 -11 -11 -11 -11 -11 -12 -12 -12 -12 -12 -12 -12 -12 -13 -13 -13 -13 -13 -13 -14 -14 -15 -15 -15 -14 -15 -15 -15 -15 -15 -16 -16 -17 -17 -18
-13 -13 -12 -12 -12 -12 -12 -12 -12 -12 -11 -11 -12 -11 -11 -11 -11 -12 -12 -12 -13 -13 -13 -13 -13 -13 -13 -13 -14 -14 -14 -14 -15 -15 -15 -15 -15 -15 -14 -15 -15 -15 -15 -16 -17 -17 -18
-13 -13 -13 -13 -13 -13 -12 -13 -13 -12 -12 -12 -12 -12 -12 -12 -12 -12 -12 -13 -13 -13 -13 -14 -14 -14 -14 -14 -14 -14 -14 -15 -14 -15 -15 -15 -15 -15 -14 -16 -16 -15 -15 -16 -17 -17 -17
-14 -13 -13 -13 -13 -13 -12 -13 -13 -13 -12 -12 -13 -12 -12 -12 -12 -13 -13 -13 -13 -14 -13 -14 -14 -14 -14 -15 -14 -15 -15 -15 -15 -15 -16 -16 -16 -16 -15 -16 -16 -14 -16 -16 -17 -17 -17
-14 -14 -14 -13 -13 -13 -13 -12 -13 -13 -13 -13 -13 -13 -12 -12 -12 -14 -13 -14 -13 -13 -13 -14 -15 -14 -15 -14 -15 -15 -15 -15 -15 -15 -16 -16 -16 -17 -16 -17 -16 -16 -16 -17 -17 -17 -18
-14 -14 -14 -14 -14 -14 -12 -13 -13 -13 -13 -13 -14 -14 -13 -12 -13 -13 -13 -14 -14 -14 -14 -14 -15 -15 -15 -15 -15 -15 -15 -14 -15 -15 -15 -16 -16 -17 -17 -17 -17 -16 -17 -18 -18 -17 -18
-14 -14 -14 -14 -14 -14 -14 -14 -14 -14 -14 -14 -13 -13 -14 -13 -13 -14 -14 -14 -14 -14 -14 -14 -14 -15 -15 -15 -16 -16 -16 -15 -15 -15 -16 -16 -17 -17 -17 -17 -18 -17 -18 -18 -18 -18 -19
-14 -14 -14 -14 -14 -14 -14 -14 -14 -14 -14 -14 -14 -14 -13 -13 -13 -14 -14 -14 -14 -14 -14 -14 -15 -15 -16 -16 -16 -16 -16 -16 -16 -16 -17 -17 -17 -17 -17 -18 -18 -18 -18 -19 -19 -19 -19
-15 -15 -15 -15 -15 -15 -15 -15 -15 -15 -15 -15 -15 -15 -15 -14 -14 -14 -14 -14 -15 -15 -15 -15 -16 -16 -16 -16 -16 -17 -16 -17 -17 -17 -17 -17 -18 -18 -18 -18 -18 -19 -19 -20 -20 -20 -20
-15 -16 -16 -15 -15 -15 -16 -16 -16 -16 -16 -16 -15 -16 -15 -15 -14 -15 -15 -15 -16 -16 -16 -16 -16 -16 -17 -17 -18 -18 -17 -17 -17 -17 -18 -18 -18 -18 -19 -19 -19 -19 -20 -20 -21 -20 -21
Height
5863 5863 5863 5864 5865 5866 5867 5867 5868 5868 5868 5868 5868 5867 5866 5866 5865 5865 5864 5864 5864 5864 5863 5862 5862 5861 5860 5859 5857 5855 5853 5852 5849 5846 5843 5838 5835 5832 5828 5824 5820 5816 5812 5807 5803 5799 5795
5866 5866 5866 5867 5868 5869 5870 5871 5871 5871 5871 5871 5871 5870 5869 5869 5868 5868 5868 5867 5867 5866 5865 5864 5863 5862 5861 5859 5857 5855 5853 5851 5848 5845 5842 5839 5835 5832 5828 5824 5819 5814 5810 5806 5801 5797 5792
5868 5869 5869 5870 5871 5872 5872 5873 5873 5873 5873 5873 5873 5873 5872 5871 5871 5871 5870 5870 5869 5868 5867 5865 5864 5863 5862 5860 5858 5856 5853 5850 5848 5845 5842 5838 5834 5831 5827 5823 5819 5814 5810 5804 5800 5795 5791
5870 5871 5872 5872 5873 5873 5874 5875 5875 5875 5875 5875 5875 5875 5875 5874 5873 5873 5872 5871 5871 5870 5868 5866 5865 5864 5862 5860 5858 5856 5853 5850 5846 5844 5841 5837 5833 5829 5825 5822 5818 5813 5809 5804 5798 5793 5789
5872 5873 5874 5874 5875 5875 5876 5876 5877 5877 5877 5876 5877 5876 5876 5875 5875 5874 5873 5872 5871 5870 5869 5867 5866 5864 5863 5860 5858 5855 5852 5849 5846 5843 5840 5835 5832 5828 5825 5821 5817 5812 5806 5802 5797 5791 5786
5873 5874 5875 5875 5875 5876 5876 5877 5878 5878 5877 5878 5878 5877 5876 5876 5875 5874 5873 5872 5871 5870 5869 5867 5866 5865 5863 5860 5857 5854 5851 5848 5845 5842 5838 5834 5830 5826 5822 5817 5815 5810 5806 5799 5795 5790 5782
5874 5875 5876 5876 5876 5876 5876 5877 5878 5878 5878 5878 5878 5878 5877 5876 5875 5874 5874 5872 5872 5871 5868 5867 5865 5863 5861 5859 5856 5853 5850 5846 5843 5839 5836 5832 5828 5824 5820 5816 5812 5807 5803 5798 5791 5788 5781
5875 5876 5877 5877 5877 5877 5877 5877 5878 5878 5878 5878 5878 5877 5877 5876 5875 5874 5873 5871 5870 5870 5867 5865 5863 5862 5860 5857 5855 5852 5849 5846 5841 5837 5834 5831 5827 5823 5818 5813 5808 5804 5800 5795 5791 5784 5779
5874 5875 5876 5876 5877 5877 5878 5877 5877 5877 5877 5877 5877 5876 5876 5875 5874 5873 5872 5870 5869 5867 5866 5864 5862 5860 5858 5855 5852 5849 5846 5842 5839 5835 5831 5827 5824 5819 5815 5810 5805 5800 5796 5791 5787 5781 5774
5873 5874 5874 5875 5876 5876 5877 5876 5876 5876 5876 5875 5875 5875 5874 5873 5873 5871 5870 5868 5867 5865 5864 5863 5860 5858 5856 5852 5850 5846 5843 5841 5836 5832 5828 5825 5820 5815 5812 5808 5804 5798 5793 5787 5783 5777 5772
5870 5871 5872 5872 5873 5874 5874 5874 5874 5874 5874 5873 5872 5872 5871 5871 5869 5868 5868 5866 5864 5862 5861 5860 5857 5855 5852 5850 5847 5843 5840 5836 5832 5828 5825 5821 5816 5812 5809 5805 5800 5795 5788 5783 5778 5774 5768
5866 5868 5869 5870 5870 5870 5871 5871 5871 5871 5871 5870 5869 5868 5868 5867 5866 5865 5864 5862 5861 5860 5857 5855 5853 5850 5848 5844 5842 5839 5836 5833 5829 5825 5821 5817 5813 5809 5804 5800 5795 5790 5785 5779 5773 5768 5765
5863 5864 5865 5866 5866 5866 5866 5867 5867 5867 5867 5866 5865 5865 5864 5863 5862 5860 5859 5858 5857 5854 5854 5851 5848 5845 5843 5840 5837 5834 5831 5827 5824 5821 5817 5813 5808 5804 5800 5796 5790 5785 5779 5774 5769 5763 5759
5859 5859 5860 5861 5861 5861 5862 5862 5862 5862 5862 5861 5861 5860 5859 5858 5857 5856 5855 5854 5852 5850 5848 5846 5843 5840 5838 5836 5832 5829 5826 5823 5819 5816 5812 5809 5805 5799 5793 5789 5784 5779 5774 5768 5762 5758 5754
5853 5854 5855 5856 5856 5857 5857 5857 5857 5857 5856 5856 5856 5855 5855 5853 5852 5851 5851 5849 5847 5845 5843 5840 5838 5835 5833 5830 5827 5824 5820 5817 5813 5809 5806 5801 5799 5793 5788 5783 5778 5772 5769 5764 5757 5752 5746
5847 5848 5849 5851 5851 5851 5851 5852 5851 5851 5850 5850 5849 5849 5849 5848 5847 5846 5845 5843 5841 5839 5837 5834 5832 5830 5826 5824 5821 5817 5814 5810 5806 5803 5798 5795 5791 5788 5782 5777 5771 5766 5762 5756 5751 5743 5739
5840 5842 5843 5844 5845 5846 5846 5846 5846 5845 5845 5844 5843 5842 5842 5841 5841 5839 5838 5837 5835 5832 5830 5828 5825 5823 5820 5817 5814 5810 5807 5803 5799 5795 5791 5787 5783 5782 5774 5770 5764 5759 5753 5748 5742 5735 5727
5831 5833 5835 5836 5836 5838 5838 5838 5839 5838 5838 5837 5837 5836 5835 5834 5835 5832 5831 5829 5828 5825 5822 5820 5818 5815 5812 5809 5806 5803 5799 5794 5791 5787 5783 5778 5774 5771 5766 5761 5756 5749 5743 5738 5732 5726 5718
5822 5823 5825 5827 5828 5829 5830 5830 5830 5830 5830 5830 5829 5829 5827 5826 5825 5824 5823 5821 5819 5817 5814 5812 5809 5807 5804 5801 5797 5793 5790 5786 5783 5778 5774 5769 5765 5760 5756 5752 5746 5739 5732 5728 5720 5713 5712
5811 5813 5814 5817 5818 5819 5819 5820 5821 5821 5820 5820 5820 5820 5820 5818 5816 5815 5814 5813 5811 5809 5805 5803 5801 5798 5794 5792 5788 5782 5780 5777 5773 5770 5766 5760 5757 5754 5748 5743 5737 5731 5725 5718 5707 5700 5697
5799 5800 5802 5804 5807 5808 5808 5809 5809 5810 5810 5810 5810 5810 5809 5809 5807 5805 5804 5803 5801 5798 5796 5794 5792 5789 5785 5782 5779 5773 5772 5768 5764 5760 5756 5750 5746 5743 5738 5733 5726 5717 5715 5709 5697 5692 5680
5785 5787 5789 5791 5794 5795 5796 5796 5797 5797 5798 5798 5798 5799 5799 5798 5797 5795 5794 5794 5791 5788 5785 5784 5782 5777 5775 5774 5768 5764 5760 5758 5755 5750 5745 5738 5732 5727 5727 5721 5714 5706 5706 5697 5689 5682 5671
5771 5773 5777 5778 5781 5783 5785 5786 5786 5786 5786 5786 5787 5786 5785 5787 5785 5784 5785 5781 5780 5777 5775 5772 5770 5767 5765 5762 5758 5754 5751 5748 5744 5740 5733 5724 5717 5711 5710 5706 5700 5698 5693 5686 5679 5670 5662
5760 5761 5763 5764 5768 5769 5771 5773 5774 5774 5774 5775 5774 5773 5773 5773 5772 5773 5772 5771 5768 5764 5762 5761 5758 5755 5753 5749 5745 5743 5740 5738 5734 5731 5721 5712 5706 5698 5693 5689 5685 5682 5678 5672 5665 5660 5651
5746 5748 5750 5753 5754 5755 5756 5758 5759 5761 5761 5761 5761 5761 5761 5761 5762 5763 5759 5756 5757 5754 5751 5748 5747 5744 5739 5735 5730 5728 5726 5722 5723 5719 5714 5704 5694 5686 5678 5672 5670 5675 5663 5655 5649 5648 5639
5731 5733 5736 5739 5741 5743 5744 5745 5746 5747 5748 5748 5748 5748 5749 5749 5752 5750 5747 5744 5742 5740 5739 5737 5734 5729 5726 5722 5718 5713 5710 5708 5703 5700 5700 5695 5684 5676 5670 5659 5651 5653 5650 5642 5635 5632 5624
5717 5719 5722 5724 5726 5728 5730 5731 5733 5733 5734 5735 5735 5733 5734 5735 5738 5737 5735 5733 5729 5725 5723 5723 5720 5716 5713 5710 5705 5701 5697 5694 5689 5688 5684 5679 5673 5666 5661 5647 5641 5640 5633 5628 5622 5619 5611
5702 5704 5707 5709 5711 5714 5715 5716 5717 5718 5719 5719 5720 5719 5719 5720 5723 5722 5720 5718 5715 5713 5710 5709 5706 5704 5700 5696 5691 5687 5681 5678 5673 5676 5671 5666 5658 5652 5644 5637 5629 5626 5620 5616 5609 5601 5597
5686 5688 5691 5694 5696 5697 5699 5701 5703 5703 5703 5704 5705 5703 5702 5704 5710 5709 5706 5702 5701 5699 5696 5695 5693 5690 5683 5680 5677 5672 5669 5663 5660 5656 5660 5650 5647 5638 5634 5626 5619 5612 5606 5599 5593 5587 5580
Wind_Speed
11 11 12 15 18 19 18 17 16 17 18 17 16 16 17 17 19 20 19 19 18 16 16 17 17 17 16 15 16 17 16 17 18 19 21 24 25 23 21 22 24 24 25 25 22 21 20
13 14 16 16 16 15 14 13 13 12 14 14 14 14 14 15 17 18 19 19 17 15 15 15 15 15 15 16 15 16 17 19 20 22 22 23 25 23 22 24 26 26 26 26 25 21 20
13 14 15 14 13 13 12 11 11 10 11 11 11 12 13 14 15 15 15 15 13 13 13 12 12 13 11 15 14 16 17 19 20 21 21 24 25 22 23 24 25 25 26 25 25 21 20
12 13 13 13 12 11 10 10 9 10 10 9 10 10 11 13 13 13 12 11 10 9 8 9 10 10 12 13 14 14 15 17 20 21 24 26 25 24 24 25 26 26 27 27 26 25 22
11 11 10 10 9 9 9 9 10 10 8 7 7 8 8 8 9 9 9 8 7 7 7 8 9 10 10 11 13 14 16 18 19 19 24 28 25 24 24 26 27 29 31 29 27 26 25
8 9 8 7 7 7 7 8 7 6 5 5 5 5 5 6 6 5 5 6 6 8 7 8 9 10 10 11 14 15 17 19 19 19 24 29 26 22 24 27 28 28 28 31 32 31 30
6 6 7 7 6 5 6 6 5 4 3 3 3 3 3 3 3 4 4 6 7 8 10 10 11 12 13 14 15 17 18 20 20 20 23 29 25 23 23 26 28 29 29 31 34 32 32
8 7 6 5 4 4 4 5 5 5 5 4 4 3 2 1 0 2 3 4 6 8 12 12 13 14 15 17 18 18 20 21 20 19 23 28 24 22 24 28 29 30 33 34 34 38 32
9 8 6 6 6 5 5 4 5 5 6 6 5 4 4 4 5 5 6 7 8 10 13 14 14 16 17 18 19 20 21 22 21 19 23 28 25 24 25 27 30 32 32 34 35 32 31
11 10 9 9 8 8 8 9 9 8 8 8 9 9 9 9 8 9 10 10 11 13 15 16 15 17 18 19 20 20 23 24 22 20 24 27 27 25 26 26 30 32 33 34 35 34 31
16 15 14 13 13 12 11 10 10 11 13 13 13 12 13 13 14 14 15 15 15 16 20 17 20 19 20 21 21 22 24 25 24 23 26 28 28 26 29 28 30 33 37 37 34 33 31
19 19 18 17 16 15 14 13 13 12 12 13 14 15 15 16 17 18 19 19 20 20 22 21 20 21 22 23 24 25 26 27 27 25 27 30 28 28 30 30 32 34 34 36 36 36 31
20 20 19 19 19 18 17 16 16 16 15 15 15 16 16 17 17 19 20 21 21 21 22 23 23 24 25 26 26 27 28 31 29 28 28 31 30 30 30 32 33 32 34 36 38 37 34
22 22 21 22 23 21 19 18 18 18 18 18 18 19 20 20 21 21 22 23 23 23 22 24 25 26 26 27 27 29 30 31 31 31 32 31 32 33 34 36 38 35 34 35 38 40 39
25 25 25 24 23 23 23 22 21 21 21 22 23 22 22 23 24 24 24 25 25 25 26 27 27 28 29 29 29 30 33 33 32 33 34 38 33 34 35 37 38 37 37 37 40 42 43
32 30 29 28 27 26 26 25 25 24 24 24 25 25 25 25 26 26 25 26 27 27 28 29 30 31 33 33 34 35 36 36 34 35 37 39 37 35 37 38 40 38 37 38 40 43 44
37 35 33 33 32 30 29 29 28 27 26 27 28 28 28 28 28 28 28 28 29 30 32 32 34 35 36 37 38 38 40 39 37 38 40 42 42 38 40 42 44 44 39 37 39 42 44
41 40 39 38 37 35 34 33 33 33 31 31 30 32 32 32 31 31 31 32 33 34 35 36 37 39 40 40 40 41 40 40 39 40 42 43 45 45 44 45 47 49 47 40 42 46 43
45 45 44 43 43 42 39 37 37 37 37 36 35 35 35 36 35 35 36 36 37 38 39 40 41 41 42 43 45 44 43 41 39 40 42 46 48 50 50 49 50 55 53 46 47 49 42
52 51 49 49 47 45 44 42 42 42 42 42 41 39 39 39 39 39 40 41 41 42 43 43 44 44 45 44 45 48 46 45 44 44 45 49 51 48 51 48 50 54 51 49 50 50 42
55 53 53 50 47 46 46 46 45 45 46 44 44 44 43 43 44 44 45 45 43 45 46 45 45 46 49 48 47 49 47 47 47 49 49 52 54 53 55 54 55 56 51 50 51 49 50
62 59 55 53 51 50 49 49 49 48 48 48 49 48 47 48 48 48 47 45 47 47 47 46 47 49 49 48 50 52 52 51 51 53 53 57 59 60 61 54 50 57 49 48 49 47 46
62 64 61 60 56 54 55 53 53 51 49 50 51 54 54 52 50 50 46 47 48 50 51 52 50 50 49 50 53 53 54 55 56 57 60 63 63 62 59 54 56 61 50 48 46 48 50
51 51 58 60 61 60 57 58 59 56 53 51 50 51 54 56 50 47 51 51 53 53 53 51 50 50 50 53 55 57 58 58 59 58 62 61 59 54 60 56 57 57 50 50 50 49 50
57 54 54 52 49 49 53 57 60 56 55 48 46 49 49 47 48 46 50 53 52 51 53 53 53 54 57 58 59 58 59 60 61 62 56 55 59 58 57 61 61 57 53 57 53 50 54
63 62 58 57 55 54 51 50 52 53 50 51 52 52 54 55 50 49 49 50 50 54 55 56 58 58 59 62 61 60 59 60 62 61 60 61 51 56 57 62 61 53 55 58 56 54 54
65 64 62 60 55 54 56 58 59 57 58 58 59 61 59 59 55 54 52 54 57 58 59 59 56 56 56 57 59 60 58 58 57 57 49 50 55 60 64 63 60 54 52 54 57 56 58
65 64 66 63 59 58 56 56 55 56 55 58 58 56 56 55 55 54 56 56 57 55 52 53 54 52 53 55 57 57 59 55 57 51 50 56 57 61 58 59 58 55 55 57 55 57 62
67 67 66 66 66 64 63 62 62 60 59 60 61 61 61 61 59 58 60 61 57 52 53 57 60 60 57 61 60 58 57 56 56 63 64 65 59 55 53 51 54 55 58 55 60 66 67
Wind_Direction
112 117 116 115 113 113 107 105 106 100 101 94 86 89 93 88 89 89 93 93 92 91 89 88 83 78 70 64 54 45 41 35 28 25 25 24 22 22 19 18 16 12 8 4 358 352 347
116 114 117 118 116 117 113 108 110 104 100 97 87 89 94 93 93 90 90 91 92 91 89 85 80 71 59 53 43 37 37 32 26 23 22 20 20 19 20 20 15 10 8 5 356 354 348
120 118 120 120 121 121 116 117 117 110 110 104 90 85 94 97 101 98 95 93 88 82 78 72 64 56 47 45 34 31 28 26 25 24 20 18 17 17 17 15 14 10 6 3 359 353 347
129 126 122 122 126 128 128 129 124 118 117 109 99 87 96 104 106 102 96 88 76 65 61 57 50 41 33 30 24 21 19 18 21 20 17 14 12 13 15 10 9 8 6 2 358 352 346
131 134 135 133 130 130 133 136 135 134 125 110 112 102 92 104 102 99 93 80 61 42 33 33 28 25 19 20 10 11 9 13 15 13 12 10 8 11 7 8 6 5 3 2 359 351 345
129 131 136 141 142 141 141 145 150 148 134 135 130 122 103 93 94 83 63 52 43 31 9 2 7 7 6 3 0 0 1 4 4 5 5 4 4 2 3 1 1 2 4 360 360 353 343
155 144 138 135 139 157 167 172 180 177 173 161 155 141 126 109 81 60 40 23 16 11 3 352 358 355 352 350 351 352 354 355 354 357 357 358 358 359 354 353 356 0 1 3 356 354 343
191 190 183 171 159 163 174 186 190 190 191 189 174 161 155 163 6 347 337 338 344 342 351 349 344 343 338 340 341 343 345 348 348 347 350 351 353 351 350 351 354 359 1 2 358 352 346
208 206 210 219 221 227 228 222 215 216 215 211 213 233 254 269 279 293 312 324 331 332 330 339 333 332 331 333 334 336 336 338 339 339 341 346 346 345 347 352 353 355 358 357 358 352 346
217 222 224 232 239 241 244 246 246 242 241 244 247 254 260 266 278 288 294 306 315 318 323 327 325 325 328 326 328 327 329 333 331 330 333 340 339 342 348 350 350 350 352 355 356 356 350
226 229 231 237 243 251 257 258 259 263 263 261 264 267 272 276 282 287 293 297 304 310 320 322 322 323 326 324 323 324 324 329 328 325 329 335 335 337 342 344 346 347 348 352 356 355 352
234 237 241 245 249 253 258 264 267 270 277 279 278 280 281 282 286 287 289 293 300 306 313 315 316 319 321 322 322 323 327 328 324 321 326 332 329 329 333 337 343 345 346 347 352 354 352
242 245 245 247 250 255 259 260 263 268 274 277 280 283 287 290 294 297 298 296 295 300 307 310 314 318 321 321 320 321 324 325 322 319 321 325 323 323 330 333 341 343 345 344 345 349 348
247 250 251 251 251 253 256 260 264 268 271 273 277 282 286 291 294 297 299 299 299 302 304 307 310 313 315 315 315 317 320 320 317 313 314 321 321 324 328 332 334 339 341 341 337 339 341
251 255 257 258 260 261 262 264 267 272 275 278 277 280 283 285 287 291 294 295 297 299 303 305 307 308 309 310 311 313 315 315 312 311 315 320 322 323 325 328 332 335 334 332 329 328 331
256 258 262 263 264 266 267 267 268 268 272 275 277 279 280 282 284 288 292 295 298 300 300 301 303 305 306 308 309 310 312 311 309 311 313 316 317 321 321 324 325 328 330 328 326 322 325
258 260 263 266 268 269 270 269 270 271 271 271 273 275 278 281 285 288 292 294 295 295 296 297 298 301 303 305 307 309 311 310 308 308 311 314 314 319 318 319 321 322 324 321 321 315 317
255 259 261 264 267 266 266 264 266 267 268 272 273 274 277 281 284 286 288 290 290 291 293 296 298 299 301 304 305 306 307 305 307 308 311 312 313 314 314 317 318 318 320 319 317 312 311
260 261 260 261 263 263 262 261 261 263 268 271 273 272 272 274 279 282 284 286 289 291 292 294 296 299 300 302 303 303 303 302 303 305 308 310 312 313 313 316 317 317 315 314 308 306 310
259 260 262 264 260 261 262 260 260 260 261 265 268 271 273 274 275 278 282 285 288 290 291 293 295 297 297 299 300 300 300 300 301 305 307 309 310 310 311 309 309 311 310 309 304 304 299
255 257 258 258 259 259 260 260 261 263 263 265 268 271 273 275 276 278 281 284 286 287 289 292 294 296 296 296 295 295 297 298 300 303 304 306 306 307 309 308 310 309 313 311 306 304 295
252 253 254 255 257 256 254 256 259 262 264 268 269 272 275 277 277 279 281 284 283 284 287 288 291 290 293 296 294 297 297 297 298 300 304 303 305 303 308 308 308 307 317 309 308 307 299
256 250 254 256 257 258 258 259 263 263 266 268 269 272 274 278 276 277 280 283 286 285 286 288 289 291 295 293 294 293 296 298 299 304 304 302 303 304 306 301 304 309 310 310 306 303 297
255 259 260 260 256 257 259 262 264 264 269 266 270 275 277 274 273 277 280 280 283 283 284 286 286 289 290 291 292 295 297 299 298 300 303 301 304 304 307 302 304 309 311 309 307 303 298
254 255 259 259 261 263 260 260 258 262 265 260 266 275 275 276 275 281 279 277 280 281 282 284 287 288 288 289 290 294 297 297 299 300 300 300 303 304 304 302 304 307 302 313 309 306 303
254 257 258 259 260 260 260 258 256 252 258 258 268 272 271 273 273 276 277 275 276 281 282 283 285 285 288 291 291 294 295 295 300 300 297 299 300 303 305 308 309 309 311 309 307 306 307
256 257 259 261 262 261 258 262 261 258 257 262 267 270 271 270 274 272 271 273 276 277 278 278 281 285 289 292 292 293 293 295 291 297 300 301 303 299 306 304 304 310 312 314 310 308 307
257 257 258 260 261 261 262 261 262 261 263 264 267 268 269 270 270 272 274 277 276 276 280 283 283 285 288 290 294 294 296 297 294 297 297 302 300 303 302 302 305 307 307 306 306 303 302
257 258 259 260 260 262 264 265 265 264 265 266 267 269 269 270 271 268 272 278 281 280 284 284 286 287 293 295 296 295 291 292 293 295 296 293 292 298 294 295 301 305 304 305 299 297 297